Location: Pedholt
(56.0260°N, 10.2097°E)
Time: 18:53:14
(UTC+00:00)

Transit 2A Rocket - Pass Details

Date: 03 August 2021
Orbit: 586 x 917 km, 66.7° (Epoch: 27 September)

Event Time Altitude Azimuth Distance (km) Brightness Sun altitude
Rises 12:27:10 0° 182° (S) 2,871 8.6 49.6°
Reaches altitude 10° 12:29:39 10° 169° (SSE) 2,007 7.9 49.5°
Maximum altitude 12:33:20 25° 114° (ESE) 1,328 6.6 49.2°
Drops below altitude 10° 12:37:18 10° 59° (ENE) 2,167 7.1 49.0°
Sets 12:40:04 0° 47° (NE) 3,153 7.8 48.8°
